Location: *
(58.4167°N, 22.5000°E)
Time: 00:42:46
(UTC+00:00)

Spot 4 - Pass Details

Date: 22 September 2019
Orbit: 704 x 723 km, 98.3° (Epoch: 20 October)

Event Time Altitude Azimuth Distance (km) Brightness Sun altitude
Exits shadow 20:27:10 51° 43° (NE) 918 4.4 -27.1°
Drops below altitude 10° 20:31:26 10° 349° (N) 2,230 7.3 -27.4°
Sets 20:33:46 0° 345° (NNW) 3,155 8.3 -27.6°
